| time (UTC) | temp C | wind direction | speed KPH | gust KPH | rain 1hr cm | rain 24hr cm | rain mn cm | humidity % | barometer mb |
| 20260902220504 | 20 | 224 | 19.3 | 27.4 | 0.00 | 0.00 | 0.00 | 42 | 1018.9 |
| 20260902220003 | 20 | 230 | 19.3 | 27.4 | 0.00 | 0.00 | 0.00 | 43 | 1019.0 |
| 20260902214003 | 20 | 230 | 17.7 | 29.0 | 0.00 | 0.00 | 0.00 | 41 | 1019.1 |
| 20260902213004 | 20 | 206 | 19.3 | 29.0 | 0.00 | 0.00 | 0.00 | 43 | 1019.2 |
| 20260902212502 | 20 | 230 | 17.7 | 35.4 | 0.00 | 0.00 | 0.00 | 42 | 1019.1 |
| 20260902212002 | 20 | 223 | 17.7 | 25.7 | 0.00 | 0.00 | 0.00 | 42 | 1019.2 |
| 20260902211502 | 20 | 219 | 19.3 | 27.4 | 0.00 | 0.00 | 0.00 | 41 | 1019.2 |
| 20260902211002 | 20 | 223 | 22.5 | 30.6 | 0.00 | 0.00 | 0.00 | 42 | 1019.0 |
| 20260902210502 | 20 | 234 | 20.9 | 32.2 | 0.00 | 0.00 | 0.00 | 42 | 1019.1 |
| 20260902210002 | 21 | 234 | 19.3 | 29.0 | 0.00 | 0.00 | 0.00 | 42 | 1019.0 |
| 20260902205503 | 20 | 231 | 17.7 | 30.6 | 0.00 | 0.00 | 0.00 | 40 | 1019.2 |
| 20260902205002 | 21 | 236 | 12.9 | 29.0 | 0.00 | 0.00 | 0.00 | 39 | 1019.1 |
| 20260902204502 | 20 | 237 | 14.5 | 20.9 | 0.00 | 0.00 | 0.00 | 40 | 1019.2 |
| 20260902204002 | 20 | 241 | 16.1 | 24.1 | 0.00 | 0.00 | 0.00 | 41 | 1019.3 |
| 20260902203502 | 20 | 241 | 14.5 | 20.9 | 0.00 | 0.00 | 0.00 | 42 | 1019.3 |
| 20260902202002 | 19 | 245 | 16.1 | 24.1 | 0.00 | 0.00 | 0.00 | 44 | 1019.3 |
| 20260902201502 | 19 | 243 | 14.5 | 24.1 | 0.00 | 0.00 | 0.00 | 43 | 1019.3 |
| 20260902201002 | 19 | 235 | 14.5 | 22.5 | 0.00 | 0.00 | 0.00 | 44 | 1019.4 |
| 20260902200503 | 19 | 245 | 14.5 | 20.9 | 0.00 | 0.00 | 0.00 | 44 | 1019.5 |
| 20260902200002 | 19 | 239 | 14.5 | 29.0 | 0.00 | 0.00 | 0.00 | 44 | 1019.4 |
| 20260902195502 | 18 | 241 | 16.1 | 29.0 | 0.00 | 0.00 | 0.00 | 45 | 1019.7 |
| 20260902195002 | 18 | 239 | 14.5 | 22.5 | 0.00 | 0.00 | 0.00 | 45 | 1019.8 |
| 20260902194502 | 18 | 241 | 14.5 | 24.1 | 0.00 | 0.00 | 0.00 | 46 | 1019.9 |
| 20260902194002 | 18 | 238 | 16.1 | 25.7 | 0.00 | 0.00 | 0.00 | 47 | 1020.1 |
| 20260902193502 | 18 | 241 | 17.7 | 25.7 | 0.00 | 0.00 | 0.00 | 47 | 1019.9 |
| 20260902193003 | 18 | 235 | 16.1 | 27.4 | 0.00 | 0.00 | 0.00 | 47 | 1020.1 |
| 20260902192502 | 18 | 236 | 17.7 | 27.4 | 0.00 | 0.00 | 0.00 | 47 | 1020.0 |
| 20260902192003 | 18 | 243 | 19.3 | 27.4 | 0.00 | 0.00 | 0.00 | 48 | 1020.1 |
| 20260902191002 | 18 | 240 | 19.3 | 30.6 | 0.00 | 0.00 | 0.00 | 48 | 1020.1 |
| 20260902190502 | 18 | 237 | 19.3 | 30.6 | 0.00 | 0.00 | 0.00 | 48 | 1020.0 |
| 20260902190003 | 18 | 234 | 17.7 | 29.0 | 0.00 | 0.00 | 0.00 | 48 | 1020.0 |
| 20260902185002 | 18 | 235 | 17.7 | 24.1 | 0.00 | 0.00 | 0.00 | 48 | 1019.9 |
| 20260902184503 | 18 | 237 | 17.7 | 30.6 | 0.00 | 0.00 | 0.00 | 49 | 1019.9 |
| 20260902184002 | 17 | 237 | 17.7 | 27.4 | 0.00 | 0.00 | 0.00 | 49 | 1020.0 |
| 20260902183503 | 17 | 237 | 17.7 | 29.0 | 0.00 | 0.00 | 0.00 | 49 | 1019.9 |
| 20260902183002 | 17 | 241 | 17.7 | 22.5 | 0.00 | 0.00 | 0.00 | 48 | 1019.8 |
| 20260902182502 | 17 | 236 | 17.7 | 29.0 | 0.00 | 0.00 | 0.00 | 48 | 1019.7 |
| 20260902182003 | 17 | 238 | 17.7 | 29.0 | 0.00 | 0.00 | 0.00 | 48 | 1019.8 |
| 20260902181502 | 17 | 242 | 19.3 | 33.8 | 0.00 | 0.00 | 0.00 | 48 | 1019.8 |
| 20260902181002 | 17 | 242 | 19.3 | 30.6 | 0.00 | 0.00 | 0.00 | 48 | 1019.8 |
| 20260902180503 | 17 | 244 | 17.7 | 27.4 | 0.00 | 0.00 | 0.00 | 48 | 1019.8 |
| 20260902180005 | 17 | 237 | 16.1 | 25.7 | 0.00 | 0.00 | 0.00 | 48 | 1019.8 |
| 20260902175502 | 17 | 243 | 17.7 | 30.6 | 0.00 | 0.00 | 0.00 | 48 | 1020.0 |
| 20260902175002 | 17 | 245 | 16.1 | 24.1 | 0.00 | 0.00 | 0.00 | 48 | 1019.9 |
| 20260902174503 | 17 | 248 | 14.5 | 30.6 | 0.00 | 0.00 | 0.00 | 47 | 1019.9 |
| 20260902173003 | 17 | 243 | 14.5 | 22.5 | 0.00 | 0.00 | 0.00 | 45 | 1019.8 |
| 20260902172502 | 17 | 241 | 14.5 | 20.9 | 0.00 | 0.00 | 0.00 | 44 | 1019.8 |
| 20260902172003 | 17 | 241 | 12.9 | 25.7 | 0.00 | 0.00 | 0.00 | 44 | 1019.8 |
| 20260902171502 | 17 | 238 | 11.3 | 20.9 | 0.00 | 0.00 | 0.00 | 44 | 1019.7 |
| 20260902171003 | 17 | 244 | 9.7 | 20.9 | 0.00 | 0.00 | 0.00 | 46 | 1019.8 |
| 20260902170502 | 17 | 248 | 8.0 | 20.9 | 0.00 | 0.00 | 0.00 | 46 | 1019.6 |
| 20260902170002 | 17 | 240 | 8.0 | 19.3 | 0.00 | 0.00 | 0.00 | 47 | 1019.6 |
| 20260902165503 | 17 | 241 | 8.0 | 16.1 | 0.00 | 0.00 | 0.00 | 48 | 1019.7 |
| 20260902165002 | 16 | 247 | 8.0 | 12.9 | 0.00 | 0.00 | 0.00 | 49 | 1019.8 |
| 20260902164502 | 16 | 240 | 8.0 | 14.5 | 0.00 | 0.00 | 0.00 | 50 | 1019.7 |
| 20260902164002 | 16 | 243 | 8.0 | 16.1 | 0.00 | 0.00 | 0.00 | 51 | 1019.7 |
| 20260902163503 | 16 | 243 | 8.0 | 9.7 | 0.00 | 0.00 | 0.00 | 51 | 1019.8 |
| 20260902163002 | 15 | 239 | 8.0 | 12.9 | 0.00 | 0.00 | 0.00 | 52 | 1019.7 |
| 20260902162502 | 15 | 238 | 6.4 | 16.1 | 0.00 | 0.00 | 0.00 | 53 | 1019.8 |
| 20260902162002 | 15 | 247 | 4.8 | 11.3 | 0.00 | 0.00 | 0.00 | 55 | 1019.8 |
| 20260902161503 | 15 | 241 | 3.2 | 12.9 | 0.00 | 0.00 | 0.00 | 56 | 1019.6 |
| 20260902161002 | 14 | 244 | 3.2 | 6.4 | 0.00 | 0.00 | 0.00 | 56 | 1019.7 |
| 20260902160502 | 14 | 249 | 3.2 | 12.9 | 0.00 | 0.00 | 0.00 | 56 | 1019.6 |
| 20260902160003 | 13 | 248 | 1.6 | 6.4 | 0.00 | 0.00 | 0.00 | 58 | 1019.6 |
| 20260902155502 | 13 | 246 | 0.0 | 3.2 | 0.00 | 0.00 | 0.00 | 61 | 1019.8 |
| 20260902155002 | 12 | 270 | 0.0 | 1.6 | 0.00 | 0.00 | 0.00 | 64 | 1019.9 |
| 20260902154502 | 11 | 299 | 0.0 | 1.6 | 0.00 | 0.00 | 0.00 | 67 | 1019.7 |
| 20260902154002 | 11 | 300 | 0.0 | 1.6 | 0.00 | 0.00 | 0.00 | 70 | 1019.8 |
| 20260902153502 | 10 | 299 | 0.0 | 1.6 | 0.00 | 0.00 | 0.00 | 72 | 1019.8 |
| 20260902153003 | 10 | 299 | 0.0 | 1.6 | 0.00 | 0.00 | 0.00 | 73 | 1019.7 |
| 20260902152502 | 10 | 299 | 0.0 | 1.6 | 0.00 | 0.00 | 0.00 | 74 | 1019.9 |
| 20260902152003 | 9 | 356 | 0.0 | 1.6 | 0.00 | 0.00 | 0.00 | 76 | 1019.9 |
| 20260902151002 | 8 | 0 | 0.0 | 0.0 | 0.00 | 0.00 | 0.00 | 78 | 1020.0 |
| 20260902150003 | 7 | 0 | 0.0 | 0.0 | 0.00 | 0.00 | 0.00 | 79 | 1020.0 |
| 20260902145502 | 7 | 0 | 0.0 | 0.0 | 0.00 | 0.00 | 0.00 | 79 | 1020.0 |
| 20260902144503 | 7 | 0 | 0.0 | 0.0 | 0.00 | 0.00 | 0.00 | 79 | 1020.0 |
| 20260902144002 | 7 | 0 | 0.0 | 0.0 | 0.00 | 0.00 | 0.00 | 79 | 1019.9 |
| 20260902143503 | 7 | 0 | 0.0 | 0.0 | 0.00 | 0.00 | 0.00 | 78 | 1019.9 |
| 20260902143002 | 7 | 0 | 0.0 | 0.0 | 0.00 | 0.00 | 0.00 | 78 | 1019.9 |
| 20260902142503 | 6 | 0 | 0.0 | 0.0 | 0.00 | 0.00 | 0.00 | 78 | 1019.8 |
| 20260902142003 | 6 | 0 | 0.0 | 0.0 | 0.00 | 0.00 | 0.00 | 77 | 1019.7 |
| 20260902141502 | 6 | 0 | 0.0 | 0.0 | 0.00 | 0.00 | 0.00 | 77 | 1019.7 |
| 20260902141002 | 6 | 0 | 0.0 | 0.0 | 0.00 | 0.00 | 0.00 | 76 | 1019.6 |
| 20260902140503 | 6 | 6 | 0.0 | 1.6 | 0.00 | 0.00 | 0.00 | 76 | 1019.7 |
| 20260902140003 | 6 | 6 | 0.0 | 1.6 | 0.00 | 0.00 | 0.00 | 75 | 1019.6 |
| 20260902135003 | 6 | 0 | 0.0 | 0.0 | 0.00 | 0.00 | 0.00 | 74 | 1019.5 |
| 20260902134502 | 6 | 0 | 0.0 | 0.0 | 0.00 | 0.00 | 0.00 | 73 | 1019.7 |
| 20260902134003 | 7 | 0 | 0.0 | 0.0 | 0.00 | 0.00 | 0.00 | 73 | 1019.7 |
| 20260902133503 | 7 | 0 | 0.0 | 0.0 | 0.00 | 0.00 | 0.00 | 72 | 1019.6 |
| 20260902133003 | 7 | 0 | 0.0 | 0.0 | 0.00 | 0.00 | 0.00 | 72 | 1019.5 |
| 20260902132502 | 7 | 0 | 0.0 | 0.0 | 0.00 | 0.00 | 0.00 | 72 | 1019.4 |
| 20260902132003 | 7 | 0 | 0.0 | 0.0 | 0.00 | 0.00 | 0.00 | 72 | 1019.4 |
| 20260902131502 | 7 | 0 | 0.0 | 0.0 | 0.00 | 0.00 | 0.00 | 71 | 1019.3 |
| 20260902130503 | 7 | 0 | 0.0 | 0.0 | 0.00 | 0.00 | 0.00 | 72 | 1019.3 |
| 20260902130003 | 7 | 0 | 0.0 | 0.0 | 0.00 | 0.00 | 0.00 | 71 | 1019.2 |
| 20260902125503 | 7 | 0 | 0.0 | 0.0 | 0.00 | 0.00 | 0.00 | 69 | 1019.3 |
| 20260902125002 | 7 | 0 | 0.0 | 0.0 | 0.00 | 0.00 | 0.00 | 69 | 1019.2 |
| 20260902124503 | 8 | 0 | 0.0 | 0.0 | 0.00 | 0.00 | 0.00 | 68 | 1019.1 |
| 20260902124002 | 8 | 303 | 0.0 | 1.6 | 0.00 | 0.00 | 0.00 | 68 | 1019.1 |
| 20260902123502 | 8 | 0 | 0.0 | 0.0 | 0.00 | 0.00 | 0.00 | 68 | 1019.2 |
| 20260902123003 | 8 | 0 | 0.0 | 0.0 | 0.00 | 0.00 | 0.00 | 68 | 1019.2 |
| 20260902122502 | 8 | 0 | 0.0 | 0.0 | 0.00 | 0.00 | 0.00 | 67 | 1019.3 |
| 20260902122003 | 8 | 0 | 0.0 | 0.0 | 0.00 | 0.00 | 0.00 | 68 | 1019.3 |
| 20260902121503 | 8 | 303 | 0.0 | 1.6 | 0.00 | 0.00 | 0.00 | 69 | 1019.2 |
| 20260902121002 | 8 | 0 | 0.0 | 0.0 | 0.00 | 0.00 | 0.00 | 68 | 1019.2 |
| 20260902120503 | 8 | 0 | 0.0 | 0.0 | 0.00 | 0.00 | 0.00 | 69 | 1019.2 |
| 20260902115503 | 8 | 0 | 0.0 | 0.0 | 0.00 | 0.00 | 0.00 | 68 | 1019.2 |
| 20260902115003 | 9 | 303 | 0.0 | 1.6 | 0.00 | 0.00 | 0.00 | 68 | 1019.2 |
| 20260902114502 | 9 | 303 | 0.0 | 1.6 | 0.00 | 0.00 | 0.00 | 67 | 1019.2 |
| 20260902114002 | 9 | 304 | 0.0 | 1.6 | 0.00 | 0.00 | 0.00 | 67 | 1019.2 |
| 20260902113503 | 9 | 304 | 0.0 | 3.2 | 0.00 | 0.00 | 0.00 | 66 | 1019.2 |
| 20260902113003 | 9 | 302 | 0.0 | 1.6 | 0.00 | 0.00 | 0.00 | 66 | 1019.2 |
| 20260902112503 | 9 | 292 | 0.0 | 1.6 | 0.00 | 0.00 | 0.00 | 65 | 1019.3 |
| 20260902112003 | 10 | 289 | 0.0 | 1.6 | 0.00 | 0.00 | 0.00 | 64 | 1019.3 |
| 20260902111502 | 10 | 289 | 0.0 | 1.6 | 0.00 | 0.00 | 0.00 | 63 | 1019.3 |
| 20260902111003 | 10 | 283 | 0.0 | 3.2 | 0.00 | 0.00 | 0.00 | 62 | 1019.3 |
| 20260902110503 | 10 | 0 | 0.0 | 0.0 | 0.00 | 0.00 | 0.00 | 61 | 1019.3 |
| 20260902110003 | 11 | 271 | 0.0 | 1.6 | 0.00 | 0.00 | 0.00 | 60 | 1019.3 |
| 20260902105502 | 11 | 0 | 0.0 | 0.0 | 0.00 | 0.00 | 0.00 | 59 | 1019.3 |
| 20260902105003 | 11 | 0 | 0.0 | 0.0 | 0.00 | 0.00 | 0.00 | 59 | 1019.2 |
| 20260902104502 | 11 | 267 | 0.0 | 1.6 | 0.00 | 0.00 | 0.00 | 58 | 1019.2 |
| 20260902104002 | 11 | 0 | 0.0 | 0.0 | 0.00 | 0.00 | 0.00 | 58 | 1019.2 |
| 20260902103503 | 11 | 267 | 0.0 | 1.6 | 0.00 | 0.00 | 0.00 | 57 | 1019.2 |
| 20260902103003 | 12 | 0 | 0.0 | 0.0 | 0.00 | 0.00 | 0.00 | 56 | 1019.2 |
| 20260902102502 | 12 | 267 | 0.0 | 1.6 | 0.00 | 0.00 | 0.00 | 56 | 1019.2 |
| 20260902102002 | 12 | 182 | 1.6 | 1.6 | 0.00 | 0.00 | 0.00 | 55 | 1019.2 |
| 20260902101002 | 12 | 139 | 3.2 | 4.8 | 0.00 | 0.00 | 0.00 | 58 | 1019.2 |
| 20260902100503 | 12 | 145 | 3.2 | 8.0 | 0.00 | 0.00 | 0.00 | 57 | 1019.2 |
| 20260902095003 | 12 | 122 | 4.8 | 9.7 | 0.00 | 0.00 | 0.00 | 53 | 1019.2 |
| 20260902093503 | 12 | 118 | 4.8 | 4.8 | 0.00 | 0.00 | 0.00 | 53 | 1019.3 |
| 20260902093003 | 12 | 128 | 3.2 | 11.3 | 0.00 | 0.00 | 0.00 | 53 | 1019.4 |
| 20260902092503 | 13 | 123 | 3.2 | 11.3 | 0.00 | 0.00 | 0.00 | 54 | 1019.4 |
| 20260902092003 | 13 | 107 | 3.2 | 4.8 | 0.00 | 0.00 | 0.00 | 55 | 1019.5 |
| 20260902091502 | 13 | 101 | 3.2 | 9.7 | 0.00 | 0.00 | 0.00 | 56 | 1019.4 |
| 20260902091003 | 13 | 95 | 1.6 | 6.4 | 0.00 | 0.00 | 0.00 | 55 | 1019.5 |
| 20260902090004 | 13 | 104 | 0.0 | 3.2 | 0.00 | 0.00 | 0.00 | 56 | 1019.6 |
| 20260902085503 | 13 | 184 | 0.0 | 1.6 | 0.00 | 0.00 | 0.00 | 56 | 1019.7 |
| 20260902085003 | 13 | 187 | 0.0 | 1.6 | 0.00 | 0.00 | 0.00 | 56 | 1019.7 |
| 20260902084503 | 13 | 0 | 1.6 | 0.0 | 0.00 | 0.00 | 0.00 | 56 | 1019.7 |
| 20260902084003 | 13 | 177 | 1.6 | 4.8 | 0.00 | 0.00 | 0.00 | 56 | 1019.7 |
| 20260902083503 | 13 | 157 | 1.6 | 8.0 | 0.00 | 0.00 | 0.00 | 56 | 1019.7 |
| 20260902083003 | 13 | 156 | 1.6 | 8.0 | 0.00 | 0.00 | 0.00 | 55 | 1019.6 |
| 20260902082002 | 14 | 170 | 0.0 | 1.6 | 0.00 | 0.00 | 0.00 | 54 | 1019.6 |
| 20260902081503 | 14 | 0 | 0.0 | 0.0 | 0.00 | 0.00 | 0.00 | 53 | 1019.6 |
| 20260902081003 | 14 | 173 | 0.0 | 1.6 | 0.00 | 0.00 | 0.00 | 53 | 1019.5 |
| 20260902080502 | 14 | 173 | 0.0 | 1.6 | 0.00 | 0.00 | 0.00 | 53 | 1019.6 |
| 20260902080003 | 14 | 170 | 1.6 | 3.2 | 0.00 | 0.00 | 0.00 | 53 | 1019.5 |
| 20260902075503 | 14 | 148 | 3.2 | 4.8 | 0.00 | 0.00 | 0.00 | 53 | 1019.4 |
| 20260902075003 | 14 | 138 | 3.2 | 8.0 | 0.00 | 0.00 | 0.00 | 53 | 1019.4 |
| 20260902074503 | 14 | 140 | 1.6 | 12.9 | 0.00 | 0.00 | 0.00 | 53 | 1019.3 |
| 20260902074002 | 14 | 116 | 1.6 | 3.2 | 0.00 | 0.00 | 0.00 | 54 | 1019.4 |
| 20260902073503 | 14 | 101 | 1.6 | 4.8 | 0.00 | 0.00 | 0.00 | 53 | 1019.3 |
| 20260902073003 | 14 | 137 | 0.0 | 6.4 | 0.00 | 0.00 | 0.00 | 53 | 1019.3 |
| 20260902072502 | 15 | 117 | 0.0 | 4.8 | 0.00 | 0.00 | 0.00 | 52 | 1019.2 |
| 20260902072003 | 15 | 143 | 0.0 | 3.2 | 0.00 | 0.00 | 0.00 | 52 | 1019.2 |
| 20260902071503 | 15 | 0 | 0.0 | 0.0 | 0.00 | 0.00 | 0.00 | 51 | 1019.2 |
| 20260902071003 | 15 | 0 | 0.0 | 0.0 | 0.00 | 0.00 | 0.00 | 51 | 1019.2 |
| 20260902065503 | 15 | 148 | 3.2 | 8.0 | 0.00 | 0.00 | 0.00 | 51 | 1019.2 |
| 20260902065004 | 15 | 147 | 1.6 | 4.8 | 0.00 | 0.00 | 0.00 | 51 | 1019.2 |
| 20260902064503 | 15 | 147 | 1.6 | 6.4 | 0.00 | 0.00 | 0.00 | 50 | 1019.1 |
| 20260902064003 | 15 | 144 | 1.6 | 3.2 | 0.00 | 0.00 | 0.00 | 50 | 1019.2 |
| 20260902063503 | 15 | 154 | 1.6 | 3.2 | 0.00 | 0.00 | 0.00 | 50 | 1019.1 |
| 20260902062503 | 15 | 200 | 0.0 | 3.2 | 0.00 | 0.00 | 0.00 | 50 | 1019.1 |
| 20260902062003 | 15 | 0 | 1.6 | 0.0 | 0.00 | 0.00 | 0.00 | 51 | 1019.1 |
| 20260902061503 | 15 | 190 | 1.6 | 4.8 | 0.00 | 0.00 | 0.00 | 51 | 1019.0 |
| 20260902061003 | 15 | 172 | 1.6 | 8.0 | 0.00 | 0.00 | 0.00 | 52 | 1019.0 |
| 20260902060503 | 15 | 181 | 1.6 | 1.6 | 0.00 | 0.00 | 0.00 | 52 | 1018.9 |
| 20260902060004 | 15 | 174 | 1.6 | 6.4 | 0.00 | 0.00 | 0.00 | 53 | 1018.8 |
| 20260902055502 | 15 | 167 | 0.0 | 6.4 | 0.00 | 0.00 | 0.00 | 52 | 1018.7 |
| 20260902055003 | 15 | 229 | 0.0 | 1.6 | 0.00 | 0.00 | 0.00 | 52 | 1018.7 |
| 20260902054503 | 15 | 0 | 0.0 | 0.0 | 0.00 | 0.00 | 0.00 | 51 | 1018.7 |
| 20260902054003 | 15 | 199 | 0.0 | 1.6 | 0.00 | 0.00 | 0.00 | 51 | 1018.7 |
| 20260902053003 | 16 | 0 | 0.0 | 0.0 | 0.00 | 0.00 | 0.00 | 50 | 1019.0 |
| 20260902052503 | 16 | 182 | 0.0 | 1.6 | 0.00 | 0.00 | 0.00 | 51 | 1019.1 |
| 20260902052003 | 16 | 182 | 1.6 | 1.6 | 0.00 | 0.00 | 0.00 | 51 | 1019.1 |
| 20260902051003 | 16 | 185 | 1.6 | 4.8 | 0.00 | 0.00 | 0.00 | 50 | 1019.2 |
| 20260902050504 | 16 | 162 | 1.6 | 6.4 | 0.00 | 0.00 | 0.00 | 50 | 1019.2 |
| 20260902050006 | 16 | 172 | 1.6 | 3.2 | 0.00 | 0.00 | 0.00 | 50 | 1019.1 |
| 20260902045503 | 16 | 187 | 1.6 | 3.2 | 0.00 | 0.00 | 0.00 | 50 | 1019.1 |
| 20260902044503 | 16 | 0 | 0.0 | 0.0 | 0.00 | 0.00 | 0.00 | 49 | 1019.1 |
| 20260902044002 | 16 | 190 | 0.0 | 1.6 | 0.00 | 0.00 | 0.00 | 49 | 1019.1 |
| 20260902043503 | 16 | 182 | 0.0 | 1.6 | 0.00 | 0.00 | 0.00 | 49 | 1019.0 |
| 20260902043004 | 16 | 0 | 0.0 | 0.0 | 0.00 | 0.00 | 0.00 | 48 | 1018.9 |
| 20260902042503 | 16 | 181 | 0.0 | 1.6 | 0.00 | 0.00 | 0.00 | 48 | 1018.9 |
| 20260902042003 | 16 | 0 | 0.0 | 0.0 | 0.00 | 0.00 | 0.00 | 48 | 1018.8 |
| 20260902041504 | 16 | 186 | 0.0 | 1.6 | 0.00 | 0.00 | 0.00 | 48 | 1018.7 |
| 20260902041003 | 16 | 187 | 0.0 | 3.2 | 0.00 | 0.00 | 0.00 | 48 | 1018.6 |
| 20260902040503 | 16 | 0 | 0.0 | 0.0 | 0.00 | 0.00 | 0.00 | 48 | 1018.6 |
| 20260902040003 | 16 | 0 | 0.0 | 0.0 | 0.00 | 0.00 | 0.00 | 48 | 1018.4 |
| 20260902035503 | 16 | 0 | 0.0 | 0.0 | 0.00 | 0.00 | 0.00 | 48 | 1018.4 |
| 20260902035003 | 17 | 164 | 1.6 | 1.6 | 0.00 | 0.00 | 0.00 | 48 | 1018.3 |
| 20260902034503 | 17 | 161 | 3.2 | 4.8 | 0.00 | 0.00 | 0.00 | 48 | 1018.2 |
| 20260902034003 | 17 | 181 | 3.2 | 12.9 | 0.00 | 0.00 | 0.00 | 47 | 1018.2 |
| 20260902032003 | 17 | 136 | 1.6 | 3.2 | 0.00 | 0.00 | 0.00 | 47 | 1017.9 |
| 20260902031503 | 17 | 135 | 1.6 | 3.2 | 0.00 | 0.00 | 0.00 | 48 | 1017.9 |
| 20260902031002 | 17 | 139 | 0.0 | 3.2 | 0.00 | 0.00 | 0.00 | 47 | 1017.9 |
| 20260902030003 | 18 | 166 | 1.6 | 3.2 | 0.00 | 0.00 | 0.00 | 45 | 1017.6 |
| 20260902025503 | 18 | 185 | 3.2 | 4.8 | 0.00 | 0.00 | 0.00 | 44 | 1017.6 |
| 20260902025004 | 18 | 186 | 4.8 | 6.4 | 0.00 | 0.00 | 0.00 | 42 | 1017.5 |
| 20260902024503 | 18 | 187 | 4.8 | 6.4 | 0.00 | 0.00 | 0.00 | 41 | 1017.4 |
| 20260902024003 | 18 | 192 | 6.4 | 6.4 | 0.00 | 0.00 | 0.00 | 41 | 1017.4 |
| 20260902023003 | 18 | 229 | 4.8 | 12.9 | 0.00 | 0.00 | 0.00 | 41 | 1017.3 |
| 20260902022004 | 19 | 240 | 6.4 | 8.0 | 0.00 | 0.00 | 0.00 | 41 | 1017.2 |
| 20260902021503 | 19 | 244 | 8.0 | 8.0 | 0.00 | 0.00 | 0.00 | 40 | 1017.2 |
| 20260902021003 | 19 | 248 | 8.0 | 11.3 | 0.00 | 0.00 | 0.00 | 40 | 1017.2 |
| 20260902020503 | 19 | 241 | 9.7 | 14.5 | 0.00 | 0.00 | 0.00 | 41 | 1017.1 |
| 20260902020004 | 20 | 239 | 9.7 | 14.5 | 0.00 | 0.00 | 0.00 | 40 | 1017.4 |
| 20260902015503 | 20 | 243 | 9.7 | 14.5 | 0.00 | 0.00 | 0.00 | 38 | 1017.5 |
| 20260902015003 | 20 | 243 | 8.0 | 12.9 | 0.00 | 0.00 | 0.00 | 38 | 1017.4 |
| 20260902014503 | 20 | 243 | 6.4 | 14.5 | 0.00 | 0.00 | 0.00 | 36 | 1017.4 |
| 20260902014003 | 21 | 251 | 6.4 | 12.9 | 0.00 | 0.00 | 0.00 | 35 | 1017.4 |
| 20260902013504 | 21 | 247 | 4.8 | 14.5 | 0.00 | 0.00 | 0.00 | 32 | 1017.3 |
| 20260902013004 | 21 | 250 | 3.2 | 12.9 | 0.00 | 0.00 | 0.00 | 30 | 1017.3 |
| 20260902012503 | 21 | 255 | 6.4 | 6.4 | 0.00 | 0.00 | 0.00 | 30 | 1017.2 |
| 20260902012003 | 22 | 243 | 9.7 | 12.9 | 0.00 | 0.00 | 0.00 | 30 | 1017.1 |
| 20260902011504 | 22 | 242 | 9.7 | 16.1 | 0.00 | 0.00 | 0.00 | 30 | 1017.1 |
| 20260902011003 | 22 | 238 | 8.0 | 16.1 | 0.00 | 0.00 | 0.00 | 29 | 1017.2 |
| 20260902010004 | 22 | 243 | 9.7 | 20.9 | 0.00 | 0.00 | 0.00 | 24 | 1017.1 |
| 20260902005504 | 22 | 235 | 11.3 | 19.3 | 0.00 | 0.00 | 0.00 | 25 | 1017.0 |
| 20260902005003 | 22 | 240 | 11.3 | 22.5 | 0.00 | 0.00 | 0.00 | 24 | 1017.0 |
| 20260902004503 | 22 | 232 | 12.9 | 16.1 | 0.00 | 0.00 | 0.00 | 24 | 1017.1 |
| 20260902004003 | 23 | 231 | 12.9 | 22.5 | 0.00 | 0.00 | 0.00 | 24 | 1017.0 |
| 20260902003003 | 23 | 230 | 14.5 | 20.9 | 0.00 | 0.00 | 0.00 | 25 | 1016.9 |
| 20260902002503 | 23 | 233 | 16.1 | 22.5 | 0.00 | 0.00 | 0.00 | 25 | 1016.9 |
| 20260902002004 | 23 | 227 | 16.1 | 24.1 | 0.00 | 0.00 | 0.00 | 24 | 1016.8 |
| 20260902001503 | 23 | 237 | 12.9 | 24.1 | 0.00 | 0.00 | 0.00 | 24 | 1016.8 |
| 20260902001003 | 23 | 237 | 11.3 | 24.1 | 0.00 | 0.00 | 0.00 | 23 | 1016.8 |
| 20260902000503 | 23 | 215 | 12.9 | 16.1 | 0.00 | 0.00 | 0.00 | 25 | 1016.9 |
| 20260902000004 | 23 | 223 | 14.5 | 24.1 | 0.00 | 0.00 | 0.00 | 24 | 1016.9 |
| 20260901235504 | 23 | 228 | 14.5 | 19.3 | 0.00 | 0.00 | 0.00 | 23 | 1017.2 |
| 20260901235003 | 24 | 233 | 14.5 | 30.6 | 0.00 | 0.00 | 0.00 | 23 | 1017.2 |
| 20260901234503 | 23 | 228 | 14.5 | 19.3 | 0.00 | 0.00 | 0.00 | 24 | 1017.3 |
| 20260901233504 | 24 | 228 | 11.3 | 22.5 | 0.00 | 0.00 | 0.00 | 23 | 1017.3 |
| 20260901233003 | 24 | 226 | 11.3 | 20.9 | 0.00 | 0.00 | 0.00 | 23 | 1017.3 |
| 20260901232503 | 25 | 228 | 9.7 | 19.3 | 0.00 | 0.00 | 0.00 | 24 | 1017.4 |
| 20260901231503 | 25 | 224 | 11.3 | 14.5 | 0.00 | 0.00 | 0.00 | 24 | 1017.4 |
| 20260901231003 | 25 | 225 | 11.3 | 22.5 | 0.00 | 0.00 | 0.00 | 24 | 1017.5 |
| 20260901230004 | 25 | 222 | 8.0 | 16.1 | 0.00 | 0.00 | 0.00 | 26 | 1017.6 |
| 20260901225503 | 25 | 209 | 9.7 | 11.3 | 0.00 | 0.00 | 0.00 | 25 | 1017.6 |
| 20260901224504 | 25 | 238 | 8.0 | 24.1 | 0.00 | 0.00 | 0.00 | 25 | 1017.6 |
| 20260901224003 | 24 | 231 | 8.0 | 14.5 | 0.00 | 0.00 | 0.00 | 23 | 1017.7 |
| 20260901222503 | 23 | 223 | 11.3 | 22.5 | 0.00 | 0.00 | 0.00 | 23 | 1017.6 |
| 20260901222003 | 23 | 212 | 11.3 | 17.7 | 0.00 | 0.00 | 0.00 | 24 | 1017.6 |